| time (UTC) | temp F | wind direction | speed MPH | gust MPH | rain 1hr in | rain 24hr in | rain mn in | humidity % | barometer mb |
| 20260906220938 | 88 | 210 | 3.0 | 6.0 | 0.00 | 0.00 | 0.00 | 40 | 826.1 |
| 20260906220441 | 88 | 173 | 3.0 | 6.0 | 0.00 | 0.00 | 0.00 | 40 | 826.2 |
| 20260906220154 | 89 | 212 | 4.0 | 9.0 | 0.00 | 0.00 | 0.00 | 39 | 826.4 |
| 20260906215434 | 89 | 152 | 4.0 | 9.0 | 0.00 | 0.00 | 0.00 | 39 | 826.4 |
| 20260906214933 | 89 | 87 | 5.0 | 8.0 | 0.00 | 0.00 | 0.00 | 39 | 826.4 |
| 20260906214435 | 89 | 140 | 5.0 | 9.0 | 0.00 | 0.00 | 0.00 | 39 | 826.6 |
| 20260906213429 | 89 | 110 | 4.0 | 8.0 | 0.00 | 0.00 | 0.00 | 39 | 826.7 |
| 20260906213144 | 89 | 222 | 4.0 | 9.0 | 0.00 | 0.00 | 0.00 | 39 | 826.7 |
| 20260906212424 | 88 | 92 | 4.0 | 9.0 | 0.00 | 0.00 | 0.00 | 39 | 826.7 |
| 20260906211640 | 88 | 205 | 4.0 | 7.0 | 0.00 | 0.00 | 0.00 | 39 | 826.9 |
| 20260906210922 | 87 | 198 | 3.0 | 7.0 | 0.00 | 0.00 | 0.00 | 39 | 826.9 |
| 20260906210420 | 87 | 194 | 5.0 | 7.0 | 0.00 | 0.00 | 0.00 | 40 | 827.1 |
| 20260906205919 | 87 | 131 | 5.0 | 11.0 | 0.00 | 0.00 | 0.00 | 40 | 827.2 |
| 20260906205645 | 87 | 114 | 6.0 | 11.0 | 0.00 | 0.00 | 0.00 | 40 | 827.2 |
| 20260906204918 | 87 | 119 | 6.0 | 11.0 | 0.00 | 0.00 | 0.00 | 40 | 827.3 |
| 20260906204404 | 86 | 136 | 6.0 | 11.0 | 0.00 | 0.00 | 0.00 | 41 | 827.3 |
| 20260906204138 | 86 | 102 | 5.0 | 13.0 | 0.00 | 0.00 | 0.00 | 41 | 827.3 |
| 20260906203604 | 85 | 98 | 3.0 | 10.0 | 0.00 | 0.00 | 0.00 | 41 | 827.3 |
| 20260906203030 | 85 | 56 | 4.0 | 11.0 | 0.00 | 0.00 | 0.00 | 39 | 827.3 |
| 20260906202306 | 85 | 113 | 5.0 | 11.0 | 0.00 | 0.00 | 0.00 | 38 | 827.3 |
| 20260906201804 | 85 | 92 | 5.0 | 10.0 | 0.00 | 0.00 | 0.00 | 41 | 827.4 |
| 20260906201304 | 85 | 102 | 5.0 | 10.0 | 0.00 | 0.00 | 0.00 | 41 | 827.3 |
| 20260906200752 | 85 | 93 | 5.0 | 10.0 | 0.00 | 0.00 | 0.00 | 41 | 827.3 |
| 20260906200250 | 85 | 82 | 5.0 | 10.0 | 0.00 | 0.00 | 0.00 | 39 | 827.4 |
| 20260906195750 | 86 | 98 | 5.0 | 9.0 | 0.00 | 0.00 | 0.00 | 40 | 827.4 |
| 20260906195250 | 86 | 176 | 6.0 | 10.0 | 0.00 | 0.00 | 0.00 | 41 | 827.5 |
| 20260906195009 | 86 | 120 | 4.0 | 10.0 | 0.00 | 0.00 | 0.00 | 41 | 827.6 |
| 20260906194512 | 85 | 342 | 3.0 | 8.0 | 0.00 | 0.00 | 0.00 | 43 | 827.5 |
| 20260906193248 | 84 | 86 | 4.0 | 8.0 | 0.00 | 0.00 | 0.00 | 42 | 827.8 |
| 20260906192750 | 84 | 73 | 4.0 | 8.0 | 0.00 | 0.00 | 0.00 | 44 | 827.8 |
| 20260906192250 | 84 | 57 | 4.0 | 8.0 | 0.00 | 0.00 | 0.00 | 45 | 827.8 |
| 20260906191744 | 84 | 101 | 5.0 | 11.0 | 0.00 | 0.00 | 0.00 | 47 | 827.9 |
| 20260906191244 | 83 | 38 | 5.0 | 11.0 | 0.00 | 0.00 | 0.00 | 47 | 827.9 |
| 20260906190742 | 83 | 81 | 4.0 | 10.0 | 0.00 | 0.00 | 0.00 | 47 | 828.0 |
| 20260906190243 | 83 | 107 | 4.0 | 11.0 | 0.00 | 0.00 | 0.00 | 49 | 828.0 |
| 20260906185743 | 83 | 81 | 5.0 | 11.0 | 0.00 | 0.00 | 0.00 | 49 | 828.1 |
| 20260906185446 | 83 | 51 | 5.0 | 9.0 | 0.00 | 0.00 | 0.00 | 47 | 828.2 |
| 20260906184944 | 83 | 173 | 5.0 | 11.0 | 0.00 | 0.00 | 0.00 | 49 | 828.3 |
| 20260906184222 | 82 | 121 | 6.0 | 11.0 | 0.00 | 0.00 | 0.00 | 50 | 828.4 |
| 20260906183723 | 82 | 71 | 5.0 | 10.0 | 0.00 | 0.00 | 0.00 | 51 | 828.5 |
| 20260906183444 | 82 | 109 | 4.0 | 10.0 | 0.00 | 0.00 | 0.00 | 52 | 828.6 |
| 20260906182720 | 82 | 130 | 4.0 | 8.0 | 0.00 | 0.00 | 0.00 | 53 | 828.7 |
| 20260906182435 | 81 | 76 | 5.0 | 10.0 | 0.00 | 0.00 | 0.00 | 52 | 828.7 |
| 20260906181720 | 81 | 91 | 4.0 | 10.0 | 0.00 | 0.00 | 0.00 | 53 | 828.8 |
| 20260906181221 | 81 | 90 | 6.0 | 11.0 | 0.00 | 0.00 | 0.00 | 52 | 828.8 |
| 20260906180719 | 80 | 63 | 6.0 | 11.0 | 0.00 | 0.00 | 0.00 | 53 | 828.9 |
| 20260906180218 | 80 | 90 | 5.0 | 10.0 | 0.00 | 0.00 | 0.00 | 54 | 829.0 |
| 20260906175717 | 80 | 0 | 6.0 | 10.0 | 0.00 | 0.00 | 0.00 | 54 | 829.0 |
| 20260906175439 | 80 | 74 | 7.0 | 10.0 | 0.00 | 0.00 | 0.00 | 56 | 829.1 |
| 20260906174714 | 79 | 83 | 7.0 | 11.0 | 0.00 | 0.00 | 0.00 | 57 | 829.2 |
| 20260906174202 | 79 | 57 | 7.0 | 11.0 | 0.00 | 0.00 | 0.00 | 56 | 829.3 |
| 20260906173633 | 79 | 107 | 6.0 | 11.0 | 0.00 | 0.00 | 0.00 | 57 | 829.5 |
| 20260906173058 | 79 | 132 | 6.0 | 11.0 | 0.00 | 0.00 | 0.00 | 57 | 829.6 |
| 20260906172541 | 79 | 105 | 5.0 | 10.0 | 0.00 | 0.00 | 0.00 | 56 | 829.6 |
| 20260906171515 | 78 | 136 | 5.0 | 9.0 | 0.00 | 0.00 | 0.00 | 57 | 829.7 |
| 20260906171013 | 78 | 55 | 5.0 | 9.0 | 0.00 | 0.00 | 0.00 | 56 | 829.7 |
| 20260906170456 | 78 | 98 | 5.0 | 9.0 | 0.00 | 0.00 | 0.00 | 57 | 829.7 |
| 20260906165929 | 77 | 85 | 4.0 | 9.0 | 0.00 | 0.00 | 0.00 | 58 | 829.8 |
| 20260906165428 | 77 | 267 | 4.0 | 9.0 | 0.00 | 0.00 | 0.00 | 60 | 830.0 |
| 20260906164918 | 76 | 130 | 4.0 | 9.0 | 0.00 | 0.00 | 0.00 | 60 | 830.0 |
| 20260906164418 | 76 | 116 | 3.0 | 7.0 | 0.00 | 0.00 | 0.00 | 61 | 830.0 |
| 20260906163913 | 76 | 129 | 4.0 | 8.0 | 0.00 | 0.00 | 0.00 | 61 | 830.0 |
| 20260906163413 | 76 | 53 | 4.0 | 8.0 | 0.00 | 0.00 | 0.00 | 61 | 829.9 |
| 20260906162911 | 76 | 74 | 4.0 | 7.0 | 0.00 | 0.00 | 0.00 | 61 | 829.9 |
| 20260906162402 | 76 | 76 | 3.0 | 7.0 | 0.00 | 0.00 | 0.00 | 60 | 830.0 |
| 20260906161902 | 75 | 135 | 3.0 | 8.0 | 0.00 | 0.00 | 0.00 | 60 | 830.1 |
| 20260906161402 | 75 | 74 | 4.0 | 8.0 | 0.00 | 0.00 | 0.00 | 59 | 830.0 |
| 20260906160902 | 76 | 67 | 3.0 | 8.0 | 0.00 | 0.00 | 0.00 | 59 | 830.0 |
| 20260906160624 | 76 | 59 | 4.0 | 8.0 | 0.00 | 0.00 | 0.00 | 56 | 829.9 |
| 20260906155858 | 76 | 136 | 2.0 | 8.0 | 0.00 | 0.00 | 0.00 | 58 | 829.9 |
| 20260906155358 | 75 | 116 | 2.0 | 4.0 | 0.00 | 0.00 | 0.00 | 62 | 829.8 |
| 20260906155116 | 74 | 129 | 2.0 | 7.0 | 0.00 | 0.00 | 0.00 | 63 | 829.9 |
| 20260906154358 | 74 | 123 | 2.0 | 7.0 | 0.00 | 0.00 | 0.00 | 64 | 829.8 |
| 20260906153858 | 74 | 55 | 2.0 | 6.0 | 0.00 | 0.00 | 0.00 | 65 | 829.9 |
| 20260906153358 | 73 | 176 | 2.0 | 5.0 | 0.00 | 0.00 | 0.00 | 66 | 829.9 |
| 20260906152858 | 72 | 92 | 2.0 | 4.0 | 0.00 | 0.00 | 0.00 | 68 | 830.0 |
| 20260906151904 | 71 | 166 | 2.0 | 4.0 | 0.00 | 0.00 | 0.00 | 71 | 830.0 |
| 20260906151341 | 71 | 143 | 1.0 | 4.0 | 0.00 | 0.00 | 0.00 | 72 | 830.1 |
| 20260906150842 | 70 | 5 | 1.0 | 4.0 | 0.00 | 0.00 | 0.00 | 73 | 830.2 |
| 20260906150343 | 69 | 115 | 1.0 | 4.0 | 0.00 | 0.00 | 0.00 | 74 | 830.1 |
| 20260906145841 | 69 | 122 | 1.0 | 4.0 | 0.00 | 0.00 | 0.00 | 75 | 830.2 |
| 20260906145343 | 68 | 161 | 1.0 | 3.0 | 0.00 | 0.00 | 0.00 | 76 | 830.2 |
| 20260906144840 | 68 | 51 | 1.0 | 3.0 | 0.00 | 0.00 | 0.00 | 76 | 830.2 |
| 20260906144343 | 68 | 90 | 2.0 | 6.0 | 0.00 | 0.00 | 0.00 | 76 | 830.2 |
| 20260906143822 | 68 | 91 | 3.0 | 6.0 | 0.00 | 0.00 | 0.00 | 75 | 830.1 |
| 20260906143512 | 68 | 100 | 2.0 | 5.0 | 0.00 | 0.00 | 0.00 | 74 | 830.1 |
| 20260906142442 | 68 | 105 | 2.0 | 5.0 | 0.00 | 0.00 | 0.00 | 76 | 830.1 |
| 20260906141723 | 68 | 104 | 3.0 | 6.0 | 0.00 | 0.00 | 0.00 | 77 | 830.1 |
| 20260906141222 | 67 | 100 | 3.0 | 6.0 | 0.00 | 0.00 | 0.00 | 78 | 830.1 |
| 20260906140941 | 67 | 74 | 3.0 | 6.0 | 0.00 | 0.00 | 0.00 | 78 | 830.1 |
| 20260906140219 | 66 | 89 | 3.0 | 6.0 | 0.00 | 0.00 | 0.00 | 80 | 830.1 |
| 20260906135718 | 65 | 94 | 2.0 | 5.0 | 0.00 | 0.00 | 0.00 | 81 | 830.0 |
| 20260906135216 | 65 | 123 | 1.0 | 3.0 | 0.00 | 0.00 | 0.00 | 82 | 829.9 |
| 20260906134718 | 64 | 105 | 0.0 | 3.0 | 0.00 | 0.00 | 0.00 | 83 | 829.9 |
| 20260906134429 | 63 | 217 | 0.0 | 2.0 | 0.00 | 0.00 | 0.00 | 84 | 830.0 |
| 20260906133208 | 63 | 291 | 0.0 | 1.0 | 0.00 | 0.00 | 0.00 | 83 | 830.0 |
| 20260906132702 | 62 | 291 | 0.0 | 1.0 | 0.00 | 0.00 | 0.00 | 81 | 830.0 |
| 20260906132159 | 62 | 291 | 0.0 | 1.0 | 0.00 | 0.00 | 0.00 | 81 | 830.0 |
| 20260906131659 | 62 | 291 | 1.0 | 2.0 | 0.00 | 0.00 | 0.00 | 81 | 829.9 |
| 20260906131154 | 62 | 291 | 1.0 | 2.0 | 0.00 | 0.00 | 0.00 | 82 | 829.9 |
| 20260906130646 | 62 | 291 | 1.0 | 3.0 | 0.00 | 0.00 | 0.00 | 82 | 829.9 |
| 20260906130144 | 62 | 248 | 2.0 | 3.0 | 0.00 | 0.00 | 0.00 | 83 | 829.8 |
| 20260906125647 | 62 | 246 | 2.0 | 3.0 | 0.00 | 0.00 | 0.00 | 82 | 829.8 |
| 20260906125135 | 62 | 246 | 2.0 | 4.0 | 0.00 | 0.00 | 0.00 | 83 | 829.8 |
| 20260906124633 | 62 | 252 | 2.0 | 4.0 | 0.00 | 0.00 | 0.00 | 81 | 829.8 |
| 20260906124122 | 62 | 290 | 1.0 | 3.0 | 0.00 | 0.00 | 0.00 | 80 | 829.7 |
| 20260906123622 | 62 | 277 | 1.0 | 2.0 | 0.00 | 0.00 | 0.00 | 80 | 829.8 |
| 20260906122621 | 62 | 277 | 1.0 | 3.0 | 0.00 | 0.00 | 0.00 | 81 | 829.8 |
| 20260906122122 | 62 | 233 | 1.0 | 3.0 | 0.00 | 0.00 | 0.00 | 82 | 829.8 |
| 20260906121620 | 62 | 273 | 1.0 | 2.0 | 0.00 | 0.00 | 0.00 | 82 | 829.8 |
| 20260906121115 | 62 | 273 | 1.0 | 2.0 | 0.00 | 0.00 | 0.00 | 82 | 829.7 |
| 20260906120616 | 62 | 273 | 1.0 | 3.0 | 0.00 | 0.00 | 0.00 | 82 | 829.7 |
| 20260906120115 | 63 | 273 | 2.0 | 3.0 | 0.00 | 0.00 | 0.00 | 83 | 829.5 |
| 20260906115105 | 63 | 253 | 1.0 | 4.0 | 0.00 | 0.00 | 0.00 | 84 | 829.5 |
| 20260906114606 | 63 | 250 | 1.0 | 3.0 | 0.00 | 0.00 | 0.00 | 82 | 829.7 |
| 20260906114106 | 63 | 250 | 2.0 | 3.0 | 0.00 | 0.00 | 0.00 | 83 | 829.8 |
| 20260906113834 | 63 | 290 | 2.0 | 3.0 | 0.00 | 0.00 | 0.00 | 82 | 829.6 |
| 20260906113103 | 63 | 290 | 1.0 | 3.0 | 0.00 | 0.00 | 0.00 | 81 | 829.7 |
| 20260906112602 | 63 | 290 | 0.0 | 2.0 | 0.00 | 0.00 | 0.00 | 80 | 829.6 |
| 20260906112100 | 63 | 290 | 0.0 | 2.0 | 0.00 | 0.00 | 0.00 | 78 | 829.7 |
| 20260906111558 | 63 | 290 | 1.0 | 2.0 | 0.00 | 0.00 | 0.00 | 78 | 829.5 |
| 20260906111058 | 63 | 290 | 2.0 | 3.0 | 0.00 | 0.00 | 0.00 | 77 | 829.4 |
| 20260906110556 | 63 | 290 | 2.0 | 3.0 | 0.00 | 0.00 | 0.00 | 77 | 829.4 |
| 20260906110056 | 63 | 294 | 1.0 | 3.0 | 0.00 | 0.00 | 0.00 | 77 | 829.5 |
| 20260906105544 | 63 | 317 | 1.0 | 3.0 | 0.00 | 0.00 | 0.00 | 76 | 829.6 |
| 20260906105042 | 63 | 317 | 2.0 | 3.0 | 0.00 | 0.00 | 0.00 | 74 | 829.6 |
| 20260906104540 | 63 | 338 | 2.0 | 4.0 | 0.00 | 0.00 | 0.00 | 71 | 829.6 |
| 20260906104043 | 64 | 330 | 2.0 | 4.0 | 0.00 | 0.00 | 0.00 | 69 | 829.7 |
| 20260906103534 | 64 | 347 | 1.0 | 2.0 | 0.00 | 0.00 | 0.00 | 65 | 829.8 |
| 20260906103031 | 64 | 355 | 1.0 | 2.0 | 0.00 | 0.00 | 0.00 | 64 | 829.7 |
| 20260906102520 | 64 | 319 | 1.0 | 2.0 | 0.00 | 0.00 | 0.00 | 64 | 829.7 |
| 20260906102018 | 65 | 214 | 1.0 | 2.0 | 0.00 | 0.00 | 0.00 | 63 | 829.6 |
| 20260906101518 | 65 | 214 | 1.0 | 2.0 | 0.00 | 0.00 | 0.00 | 64 | 829.6 |
| 20260906101016 | 65 | 214 | 1.0 | 3.0 | 0.00 | 0.00 | 0.00 | 62 | 829.5 |
| 20260906100736 | 65 | 207 | 1.0 | 3.0 | 0.00 | 0.00 | 0.00 | 62 | 829.6 |
| 20260906100008 | 65 | 254 | 1.0 | 3.0 | 0.00 | 0.00 | 0.00 | 61 | 829.6 |
| 20260906095506 | 66 | 254 | 2.0 | 3.0 | 0.00 | 0.00 | 0.00 | 61 | 829.7 |
| 20260906095003 | 66 | 277 | 2.0 | 4.0 | 0.00 | 0.00 | 0.00 | 60 | 829.6 |
| 20260906094730 | 66 | 277 | 2.0 | 4.0 | 0.00 | 0.00 | 0.00 | 60 | 829.5 |
| 20260906094004 | 67 | 219 | 2.0 | 3.0 | 0.00 | 0.00 | 0.00 | 59 | 829.5 |
| 20260906093502 | 67 | 189 | 2.0 | 4.0 | 0.00 | 0.00 | 0.00 | 58 | 829.5 |
| 20260906093222 | 67 | 209 | 2.0 | 4.0 | 0.00 | 0.00 | 0.00 | 58 | 829.4 |
| 20260906092444 | 67 | 195 | 2.0 | 4.0 | 0.00 | 0.00 | 0.00 | 58 | 829.2 |
| 20260906092208 | 67 | 217 | 2.0 | 4.0 | 0.00 | 0.00 | 0.00 | 57 | 829.0 |
| 20260906091422 | 68 | 230 | 2.0 | 3.0 | 0.00 | 0.00 | 0.00 | 56 | 829.0 |
| 20260906090920 | 68 | 281 | 1.0 | 3.0 | 0.00 | 0.00 | 0.00 | 55 | 828.9 |
| 20260906090419 | 69 | 114 | 0.0 | 1.0 | 0.00 | 0.00 | 0.00 | 54 | 828.8 |
| 20260906085918 | 69 | 114 | 0.0 | 2.0 | 0.00 | 0.00 | 0.00 | 53 | 828.8 |
| 20260906085638 | 69 | 114 | 1.0 | 3.0 | 0.00 | 0.00 | 0.00 | 53 | 828.8 |
| 20260906084911 | 69 | 114 | 1.0 | 3.0 | 0.00 | 0.00 | 0.00 | 53 | 828.8 |
| 20260906084409 | 69 | 182 | 1.0 | 3.0 | 0.00 | 0.00 | 0.00 | 53 | 828.8 |
| 20260906083908 | 69 | 148 | 1.0 | 3.0 | 0.00 | 0.00 | 0.00 | 53 | 828.8 |
| 20260906083405 | 70 | 74 | 1.0 | 3.0 | 0.00 | 0.00 | 0.00 | 53 | 828.7 |
| 20260906082904 | 70 | 73 | 0.0 | 2.0 | 0.00 | 0.00 | 0.00 | 52 | 828.8 |
| 20260906082401 | 70 | 73 | 1.0 | 4.0 | 0.00 | 0.00 | 0.00 | 51 | 828.8 |
| 20260906082119 | 70 | 73 | 2.0 | 5.0 | 0.00 | 0.00 | 0.00 | 52 | 828.8 |
| 20260906081359 | 70 | 87 | 1.0 | 5.0 | 0.00 | 0.00 | 0.00 | 51 | 828.7 |
| 20260906080858 | 71 | 227 | 0.0 | 2.0 | 0.00 | 0.00 | 0.00 | 50 | 828.8 |
| 20260906080358 | 71 | 227 | 1.0 | 2.0 | 0.00 | 0.00 | 0.00 | 50 | 828.8 |
| 20260906075856 | 71 | 273 | 1.0 | 3.0 | 0.00 | 0.00 | 0.00 | 50 | 828.8 |
| 20260906075354 | 71 | 273 | 2.0 | 4.0 | 0.00 | 0.00 | 0.00 | 50 | 828.8 |
| 20260906074852 | 71 | 273 | 3.0 | 4.0 | 0.00 | 0.00 | 0.00 | 50 | 828.8 |
| 20260906074351 | 71 | 270 | 3.0 | 4.0 | 0.00 | 0.00 | 0.00 | 50 | 828.9 |
| 20260906073848 | 71 | 264 | 2.0 | 4.0 | 0.00 | 0.00 | 0.00 | 50 | 828.9 |
| 20260906073346 | 72 | 290 | 2.0 | 3.0 | 0.00 | 0.00 | 0.00 | 49 | 829.0 |
| 20260906072845 | 72 | 182 | 2.0 | 3.0 | 0.00 | 0.00 | 0.00 | 49 | 829.0 |
| 20260906072333 | 72 | 115 | 2.0 | 3.0 | 0.00 | 0.00 | 0.00 | 49 | 829.0 |
| 20260906072053 | 72 | 256 | 2.0 | 3.0 | 0.00 | 0.00 | 0.00 | 49 | 828.9 |
| 20260906071330 | 72 | 256 | 2.0 | 3.0 | 0.00 | 0.00 | 0.00 | 49 | 828.8 |
| 20260906071054 | 72 | 272 | 1.0 | 2.0 | 0.00 | 0.00 | 0.00 | 49 | 828.8 |
| 20260906070324 | 72 | 272 | 1.0 | 2.0 | 0.00 | 0.00 | 0.00 | 49 | 828.8 |
| 20260906065822 | 73 | 313 | 1.0 | 3.0 | 0.00 | 0.00 | 0.00 | 48 | 828.9 |
| 20260906065321 | 73 | 69 | 0.0 | 3.0 | 0.00 | 0.00 | 0.00 | 48 | 828.9 |
| 20260906065010 | 73 | 263 | 0.0 | 2.0 | 0.00 | 0.00 | 0.00 | 47 | 828.9 |
| 20260906064222 | 73 | 263 | 0.0 | 2.0 | 0.00 | 0.00 | 0.00 | 47 | 828.9 |
| 20260906063716 | 73 | 263 | 0.0 | 2.0 | 0.00 | 0.00 | 0.00 | 47 | 828.9 |
| 20260906063216 | 73 | 240 | 1.0 | 3.0 | 0.00 | 0.00 | 0.00 | 47 | 828.9 |
| 20260906062716 | 73 | 323 | 2.0 | 5.0 | 0.00 | 0.00 | 0.00 | 48 | 828.8 |
| 20260906062159 | 73 | 303 | 4.0 | 5.0 | 0.00 | 0.00 | 0.00 | 48 | 828.9 |
| 20260906061929 | 72 | 293 | 3.0 | 5.0 | 0.00 | 0.00 | 0.00 | 48 | 828.9 |
| 20260906061422 | 72 | 283 | 2.0 | 4.0 | 0.00 | 0.00 | 0.00 | 48 | 829.0 |
| 20260906060700 | 73 | 290 | 3.0 | 5.0 | 0.00 | 0.00 | 0.00 | 48 | 829.1 |
| 20260906060158 | 73 | 291 | 4.0 | 5.0 | 0.00 | 0.00 | 0.00 | 48 | 829.1 |
| 20260906055922 | 74 | 282 | 3.0 | 5.0 | 0.00 | 0.00 | 0.00 | 47 | 829.2 |
| 20260906055414 | 74 | 269 | 2.0 | 4.0 | 0.00 | 0.00 | 0.00 | 46 | 829.2 |
| 20260906054654 | 75 | 196 | 2.0 | 5.0 | 0.00 | 0.00 | 0.00 | 46 | 829.4 |
| 20260906054154 | 75 | 189 | 2.0 | 5.0 | 0.00 | 0.00 | 0.00 | 46 | 829.5 |
| 20260906053648 | 75 | 227 | 2.0 | 4.0 | 0.00 | 0.00 | 0.00 | 45 | 829.6 |
| 20260906053140 | 75 | 135 | 2.0 | 4.0 | 0.00 | 0.00 | 0.00 | 45 | 829.5 |
| 20260906052901 | 76 | 209 | 3.0 | 4.0 | 0.00 | 0.00 | 0.00 | 45 | 829.3 |
| 20260906052133 | 76 | 242 | 2.0 | 4.0 | 0.00 | 0.00 | 0.00 | 45 | 829.1 |
| 20260906051632 | 76 | 255 | 2.0 | 4.0 | 0.00 | 0.00 | 0.00 | 44 | 829.1 |
| 20260906051124 | 76 | 265 | 2.0 | 4.0 | 0.00 | 0.00 | 0.00 | 43 | 829.0 |
| 20260906050625 | 76 | 228 | 2.0 | 4.0 | 0.00 | 0.00 | 0.00 | 43 | 829.0 |
| 20260906050127 | 76 | 134 | 2.0 | 5.0 | 0.00 | 0.00 | 0.00 | 43 | 829.0 |
| 20260906045628 | 76 | 213 | 2.0 | 5.0 | 0.00 | 0.00 | 0.00 | 42 | 829.0 |
| 20260906044536 | 76 | 344 | 1.0 | 3.0 | 0.00 | 0.00 | 0.00 | 42 | 828.8 |
| 20260906044011 | 76 | 268 | 2.0 | 3.0 | 0.00 | 0.00 | 0.00 | 42 | 828.7 |
| 20260906043447 | 76 | 268 | 2.0 | 3.0 | 0.00 | 0.00 | 0.00 | 42 | 828.7 |
| 20260906042916 | 76 | 270 | 1.0 | 3.0 | 0.00 | 0.00 | 0.00 | 43 | 828.8 |
| 20260906042351 | 76 | 254 | 2.0 | 5.0 | 0.00 | 0.00 | 0.00 | 43 | 828.7 |
| 20260906041819 | 76 | 247 | 3.0 | 5.0 | 0.00 | 0.00 | 0.00 | 44 | 828.6 |
| 20260906041250 | 76 | 245 | 4.0 | 6.0 | 0.00 | 0.00 | 0.00 | 45 | 828.6 |
| 20260906040721 | 76 | 236 | 4.0 | 6.0 | 0.00 | 0.00 | 0.00 | 44 | 828.5 |
| 20260906040217 | 76 | 254 | 3.0 | 5.0 | 0.00 | 0.00 | 0.00 | 44 | 828.4 |
| 20260906035708 | 76 | 237 | 2.0 | 3.0 | 0.00 | 0.00 | 0.00 | 43 | 828.3 |
| 20260906035210 | 77 | 279 | 2.0 | 3.0 | 0.00 | 0.00 | 0.00 | 43 | 828.1 |
| 20260906034648 | 78 | 327 | 2.0 | 3.0 | 0.00 | 0.00 | 0.00 | 42 | 828.0 |
| 20260906034116 | 78 | 346 | 3.0 | 5.0 | 0.00 | 0.00 | 0.00 | 41 | 828.0 |
| 20260906033556 | 79 | 344 | 5.0 | 9.0 | 0.00 | 0.00 | 0.00 | 41 | 828.0 |
| 20260906032457 | 80 | 124 | 5.0 | 11.0 | 0.00 | 0.00 | 0.00 | 39 | 828.0 |
| 20260906031933 | 81 | 126 | 3.0 | 7.0 | 0.00 | 0.00 | 0.00 | 37 | 827.9 |
| 20260906031403 | 81 | 191 | 5.0 | 8.0 | 0.00 | 0.00 | 0.00 | 36 | 827.7 |
| 20260906030828 | 81 | 134 | 4.0 | 8.0 | 0.00 | 0.00 | 0.00 | 36 | 827.7 |
| 20260906025743 | 82 | 264 | 5.0 | 9.0 | 0.00 | 0.00 | 0.00 | 34 | 827.3 |
| 20260906025245 | 82 | 275 | 6.0 | 10.0 | 0.00 | 0.00 | 0.00 | 35 | 827.2 |
| 20260906024722 | 82 | 270 | 8.0 | 11.0 | 0.00 | 0.00 | 0.00 | 35 | 827.3 |
| 20260906024221 | 82 | 286 | 8.0 | 13.0 | 0.00 | 0.00 | 0.00 | 35 | 827.3 |
| 20260906023720 | 82 | 275 | 6.0 | 13.0 | 0.00 | 0.00 | 0.00 | 35 | 827.3 |
| 20260906023220 | 82 | 262 | 6.0 | 9.0 | 0.00 | 0.00 | 0.00 | 36 | 827.4 |
| 20260906022714 | 82 | 264 | 6.0 | 9.0 | 0.00 | 0.00 | 0.00 | 36 | 827.4 |
| 20260906022214 | 82 | 285 | 6.0 | 9.0 | 0.00 | 0.00 | 0.00 | 36 | 827.4 |
| 20260906021938 | 82 | 246 | 6.0 | 9.0 | 0.00 | 0.00 | 0.00 | 37 | 827.3 |
| 20260906021152 | 82 | 255 | 7.0 | 16.0 | 0.00 | 0.00 | 0.00 | 37 | 827.4 |
| 20260906020628 | 82 | 257 | 9.0 | 16.0 | 0.00 | 0.00 | 0.00 | 37 | 827.4 |
| 20260906020131 | 82 | 249 | 11.0 | 17.0 | 0.00 | 0.00 | 0.00 | 37 | 827.3 |
| 20260906015558 | 82 | 287 | 12.0 | 20.0 | 0.00 | 0.00 | 0.00 | 37 | 827.2 |
| 20260906015253 | 82 | 273 | 12.0 | 20.0 | 0.00 | 0.00 | 0.00 | 36 | 827.2 |
| 20260906014725 | 82 | 287 | 13.0 | 19.0 | 0.00 | 0.00 | 0.00 | 37 | 827.2 |
| 20260906013932 | 82 | 290 | 13.0 | 18.0 | 0.00 | 0.00 | 0.00 | 37 | 827.2 |
| 20260906013409 | 82 | 294 | 12.0 | 18.0 | 0.00 | 0.00 | 0.00 | 36 | 827.3 |
| 20260906012845 | 82 | 274 | 12.0 | 17.0 | 0.00 | 0.00 | 0.00 | 37 | 827.1 |
| 20260906012347 | 82 | 290 | 12.0 | 18.0 | 0.00 | 0.00 | 0.00 | 37 | 827.2 |
| 20260906011813 | 82 | 282 | 12.0 | 18.0 | 0.00 | 0.00 | 0.00 | 37 | 827.3 |
| 20260906011245 | 82 | 300 | 13.0 | 20.0 | 0.00 | 0.00 | 0.00 | 37 | 827.2 |
| 20260906010716 | 82 | 289 | 12.0 | 18.0 | 0.00 | 0.00 | 0.00 | 37 | 827.4 |
| 20260906010208 | 83 | 298 | 13.0 | 18.0 | 0.00 | 0.00 | 0.00 | 37 | 827.3 |
| 20260906005151 | 83 | 289 | 14.0 | 20.0 | 0.00 | 0.00 | 0.00 | 36 | 827.4 |
| 20260906004616 | 83 | 298 | 12.0 | 20.0 | 0.00 | 0.00 | 0.00 | 36 | 827.4 |
| 20260906004052 | 83 | 315 | 12.0 | 19.0 | 0.00 | 0.00 | 0.00 | 36 | 827.6 |
| 20260906003553 | 84 | 286 | 10.0 | 17.0 | 0.00 | 0.00 | 0.00 | 36 | 827.5 |
| 20260906003031 | 84 | 309 | 10.0 | 17.0 | 0.00 | 0.00 | 0.00 | 35 | 827.5 |
| 20260906002507 | 84 | 306 | 12.0 | 17.0 | 0.00 | 0.00 | 0.00 | 35 | 827.5 |
| 20260906001941 | 85 | 272 | 13.0 | 17.0 | 0.00 | 0.00 | 0.00 | 34 | 827.5 |
| 20260906001409 | 85 | 309 | 11.0 | 19.0 | 0.00 | 0.00 | 0.00 | 34 | 827.5 |
| 20260906000845 | 86 | 286 | 10.0 | 18.0 | 0.00 | 0.00 | 0.00 | 33 | 827.5 |
| 20260906000549 | 86 | 292 | 10.0 | 18.0 | 0.00 | 0.00 | 0.00 | 32 | 827.4 |
| 20260905235828 | 86 | 310 | 11.0 | 18.0 | 0.00 | 0.00 | 0.00 | 32 | 827.3 |
| 20260905235319 | 86 | 273 | 10.0 | 18.0 | 0.00 | 0.00 | 0.00 | 32 | 827.6 |
| 20260905234821 | 86 | 279 | 7.0 | 13.0 | 0.00 | 0.00 | 0.00 | 32 | 827.6 |
| 20260905234321 | 86 | 317 | 7.0 | 12.0 | 0.00 | 0.00 | 0.00 | 32 | 827.6 |
| 20260905233820 | 87 | 329 | 7.0 | 12.0 | 0.00 | 0.00 | 0.00 | 32 | 827.5 |
| 20260905233308 | 87 | 319 | 5.0 | 9.0 | 0.00 | 0.00 | 0.00 | 31 | 827.4 |
| 20260905232807 | 87 | 321 | 6.0 | 10.0 | 0.00 | 0.00 | 0.00 | 31 | 827.3 |
| 20260905232307 | 87 | 329 | 7.0 | 11.0 | 0.00 | 0.00 | 0.00 | 31 | 827.2 |
| 20260905231809 | 87 | 332 | 9.0 | 16.0 | 0.00 | 0.00 | 0.00 | 31 | 827.3 |
| 20260905231306 | 88 | 348 | 7.0 | 16.0 | 0.00 | 0.00 | 0.00 | 31 | 827.2 |
| 20260905230804 | 89 | 5 | 5.0 | 7.0 | 0.00 | 0.00 | 0.00 | 29 | 827.2 |
| 20260905230304 | 89 | 48 | 5.0 | 9.0 | 0.00 | 0.00 | 0.00 | 29 | 827.0 |
| 20260905225804 | 89 | 355 | 5.0 | 9.0 | 0.00 | 0.00 | 0.00 | 29 | 827.0 |
| 20260905225531 | 89 | 41 | 5.0 | 8.0 | 0.00 | 0.00 | 0.00 | 29 | 826.9 |
| 20260905224806 | 89 | 32 | 5.0 | 7.0 | 0.00 | 0.00 | 0.00 | 30 | 827.0 |
| 20260905224258 | 89 | 27 | 4.0 | 7.0 | 0.00 | 0.00 | 0.00 | 29 | 826.9 |
| 20260905223757 | 89 | 18 | 4.0 | 7.0 | 0.00 | 0.00 | 0.00 | 29 | 826.9 |
| 20260905223256 | 89 | 36 | 5.0 | 9.0 | 0.00 | 0.00 | 0.00 | 29 | 827.0 |
| 20260905223011 | 89 | 34 | 5.0 | 9.0 | 0.00 | 0.00 | 0.00 | 29 | 826.9 |
| 20260905222246 | 90 | 105 | 5.0 | 10.0 | 0.00 | 0.00 | 0.00 | 28 | 827.0 |
| 20260905222007 | 90 | 76 | 5.0 | 10.0 | 0.00 | 0.00 | 0.00 | 28 | 827.0 |
| 20260905221247 | 90 | 67 | 5.0 | 12.0 | 0.00 | 0.00 | 0.00 | 28 | 827.0 |